Tracking 31027 objects as of 19-Jul-2025
HD Live streaming from Space Station
objects crossing your sky now

ZHEDA PIXING 1C

Track ZHEDA PIXING 1C now!
10-day predictions
ZHEDA PIXING 1C is classified as:


NORAD ID: 37167
Int'l Code: 2010-047C
Perigee: 594.9 km
Apogee: 620.8 km
Inclination: 97.9 °
Period: 96.7 minutes
Semi major axis: 6978 km
RCS: 0.149 m2 (medium)
Launch date: September 22, 2010
Source: People's Republic of China (PRC)
Launch site: Jiuquan Satellite Launch Center, China (JSC)
Your satellite tracking list
STARLINK-1578
Track 1 satellite(s)




NASA's NSSDC Master Catalog

Two Line Element Set (TLE):
1 37167U 10047C   25199.88921293  .00001558  00000-0  17080-3 0  9992
2 37167  97.9367 174.1536 0018536 307.4292  52.5237 14.89119523800795
Source of the keplerian elements: AFSPC